Simultaneous Nadir Overpasses (SNOs) Predictions

Prediction of SNOs between AQUA and NPP Satellite Orbit:

Table of predicted SNOs for the next 14.0 days since TLE Epoch: 9/9/2023
Index Date (AQUA) Time (AQUA) Lat,Lon (AQUA) SZA (AQUA ) Date (NPP) Time (NPP) Lat,Lon (NPP) SZA (NPP ) Distance(km) Time Diff (sec)
1 09/09/2023 13:58:00 -80.80, 62.41 95.62 09/09/2023 13:57:15 -80.80, 62.37 95.58 0.70 45
2 09/09/2023 14:47:21 80.87,-129.00 84.26 09/09/2023 14:47:56 80.87,-129.09 84.25 1.71 35
3 09/12/2023 03:43:52 79.31, 22.57 87.74 09/12/2023 03:42:39 79.53, 21.38 87.97 34.97 73
4 09/12/2023 04:32:29 -80.86,-155.44 94.80 09/12/2023 04:32:34 -80.86,-155.41 94.81 0.50 5
5 09/14/2023 18:17:36 80.85, 178.19 86.16 09/14/2023 18:17:12 80.85, 178.22 86.17 0.60 24
6 09/14/2023 19:06:59 -80.89, -13.62 93.92 09/14/2023 19:07:55 -80.89, -13.59 93.96 0.60 56
7 09/17/2023 08:02:44 -80.81, 151.47 92.84 09/17/2023 08:01:52 -80.82, 151.49 92.81 0.50 52
8 09/17/2023 08:52:05 80.88, -39.98 87.04 09/17/2023 08:52:33 80.88, -40.03 87.03 0.82 28
9 09/19/2023 22:37:12 -80.85, -66.68 91.95 09/19/2023 22:37:13 -80.85, -66.80 91.94 2.09 1
10 09/22/2023 12:22:14 80.87, -92.67 88.96 09/22/2023 12:21:48 80.86, -92.66 88.98 0.35 26



Historial Predications of SNOs between AQUA and NPP
